Weather Service Report


904 
ASUS45 KCYS 232010
RWRWY 

WYOMING REGIONAL WEATHER ROUNDUP
NATIONAL WEATHER SERVICE CHEYENNE WY
100 PM MST SUN FEB 23 2020

NOTE:  "FAIR" INDICATES FEW OR NO CLOUDS BELOW 12,000 FEET
WITH NO SIGNIFICANT WEATHER AND/OR OBSTRUCTIONS TO VISIBILITY.

WYZ001-232100-
...YELLOWSTONE NATIONAL PARK...
  
CITY           SKY/WX    TMP DP  RH WIND       PRES   REMARKS
LK YELLOWSTONE   N/A     23   9  55 CALM      29.99F                  
W YELLOWSTONE  NOT AVBL                                               

$$
WYZ002>013-054>058-071-098>099-232100-
...NORTHERN WYOMING...
  
CITY           SKY/WX    TMP DP  RH WIND       PRES   REMARKS
JACKSON        SUNNY     30  11  45 SE5       30.04F WCI  25          
CODY           SUNNY     43  15  32 E9        29.89F                  
GREYBULL       SUNNY     26  16  65 CALM      29.95F                  
WORLAND        SUNNY     31  18  58 NE5       29.92F WCI  26          
SHERIDAN       SUNNY     38  23  55 SE15      29.88F WCI  29          
BUFFALO        SUNNY     35  21  56 SE29      29.87F WCI  22          
GILLETTE       SUNNY     43  25  49 S15       29.93F                  
HULETT         FAIR      43  27  52 W3        29.96F                  
NEWCASTLE      FAIR      43  27  52 S9        30.00F                  

$$
WYZ014>020-022>026-101>103-232100-
...CENTRAL WYOMING...
  
CITY           SKY/WX    TMP DP  RH WIND       PRES   REMARKS
BIG PINEY      SUNNY     14   6  70 CALM      30.05F                  
PINEDALE       SUNNY     27   9  46 CALM      30.05S                  
DUBOIS         FAIR      43   3  19 W24G31    29.91F                  
LANDER         SUNNY     28  17  63 SE3       29.94F                  
RIVERTON       SUNNY     20  14  77 SE3       29.96F                  
CASPER         SUNNY     39  21  48 W5        29.94F                  
DOUGLAS        SUNNY     44  22  41 SE14      29.96F                  

$$
WYZ021-027>030-104>119-232100-
...SOUTHERN WYOMING...
  
CITY           SKY/WX    TMP DP  RH WIND       PRES   REMARKS
EVANSTON       SUNNY     29  11  47 S6        30.08F WCI  23          
KEMMERER       SUNNY     30  12  47 W7        30.06S WCI  23          
FORT BRIDGER   NOT AVBL                                               
ROCK SPRINGS   SUNNY     31  16  54 W9        30.04F WCI  23          
DIXON          FAIR      30  16  55 W8        30.04S WCI  23          
RAWLINS        SUNNY     26  19  74 SW12      29.98F WCI  16          
SARATOGA       FAIR      36  23  60 N3        29.97F                  
LARAMIE        CLOUDY    31  23  72 S12       29.97F WCI  22          
CHEYENNE       CLOUDY    39  18  42 CALM      29.99F                  
TORRINGTON     MOSUNNY   49  17  28 S7        29.97F                  
PINE BLUFFS    CLOUDY    41  16  36 NE7       30.00F                  

$$
  

Return to Home page


Western Regional Climate Center, wrcc@dri.edu